TimeEDT,TemperatureF,Dew PointF,Humidity,Sea Level PressureIn,VisibilityMPH,Wind Direction,Wind SpeedMPH,Gust SpeedMPH,PrecipitationIn,Events,Conditions,WindDirDegrees,DateUTC
12:53 AM,64.0,60.1,87,29.99,10.0,Calm,Calm,-,N/A,,Mostly Cloudy,0,2013-05-17 04:53:00
1:53 AM,64.0,60.1,87,29.99,10.0,Calm,Calm,-,N/A,,Mostly Cloudy,0,2013-05-17 05:53:00
2:53 AM,63.0,60.1,90,30.00,10.0,Calm,Calm,-,N/A,,Overcast,0,2013-05-17 06:53:00
3:53 AM,63.0,60.1,90,30.01,9.0,Calm,Calm,-,N/A,,Overcast,0,2013-05-17 07:53:00
4:53 AM,63.0,60.1,90,30.02,10.0,SSE,3.5,-,N/A,,Overcast,150,2013-05-17 08:53:00
5:53 AM,62.1,60.1,93,30.03,10.0,Calm,Calm,-,0.00,,Overcast,0,2013-05-17 09:53:00
6:53 AM,62.1,60.1,93,30.05,7.0,Calm,Calm,-,N/A,,Overcast,0,2013-05-17 10:53:00
8:53 AM,66.0,61.0,84,30.07,10.0,South,3.5,-,N/A,,Mostly Cloudy,170,2013-05-17 12:53:00
9:53 AM,69.1,59.0,70,30.07,10.0,SSE,3.5,-,N/A,,Clear,150,2013-05-17 13:53:00
10:53 AM,72.0,57.0,59,30.07,10.0,South,4.6,-,N/A,,Partly Cloudy,180,2013-05-17 14:53:00
11:53 AM,73.9,53.1,48,30.08,10.0,SW,5.8,-,N/A,,Clear,220,2013-05-17 15:53:00
12:53 PM,75.9,57.9,54,30.07,10.0,Variable,4.6,-,N/A,,Clear,0,2013-05-17 16:53:00
1:53 PM,75.0,55.9,51,30.07,10.0,WSW,3.5,-,N/A,,Mostly Cloudy,240,2013-05-17 17:53:00
3:53 PM,75.9,57.9,54,30.04,10.0,Variable,6.9,-,N/A,,Clear,0,2013-05-17 19:53:00
4:53 PM,75.0,59.0,57,30.03,10.0,WSW,5.8,-,N/A,,Clear,250,2013-05-17 20:53:00
5:53 PM,73.9,60.1,62,30.03,10.0,WNW,3.5,-,N/A,,Clear,290,2013-05-17 21:53:00
6:53 PM,73.0,60.1,64,30.02,10.0,NW,3.5,-,N/A,,Mostly Cloudy,310,2013-05-17 22:53:00
7:53 PM,72.0,60.1,66,30.02,10.0,Calm,Calm,-,N/A,,Overcast,0,2013-05-17 23:53:00
8:53 PM,70.0,61.0,73,30.03,10.0,NNE,5.8,-,N/A,,Overcast,20,2013-05-18 00:53:00
9:53 PM,69.1,60.1,73,30.04,10.0,East,3.5,-,N/A,,Overcast,80,2013-05-18 01:53:00
10:53 PM,69.1,59.0,70,30.04,10.0,East,3.5,-,N/A,,Overcast,80,2013-05-18 02:53:00
11:53 PM,68.0,59.0,73,30.05,10.0,South,8.1,-,N/A,,Overcast,190,2013-05-18 03:53:00